{"data":{"norad_id":35755,"intl_designator":"2009-044A","name":"JCSAT-12 (JCSAT-RA)","alt_names":[],"object_type":"PAYLOAD","status":"ACTIVE","operator":null,"country":"JPN","launch_date":"2009-08-21","launch_site_code":"FRGUI","launch_vehicle":null,"mission":null,"orbit_class":"UNKNOWN","rcs_meters":50.1187,"size_class":null,"mass_kg":null,"dimensions":null,"purposes":["comms"],"wikipedia_slug":null,"has_3d_model":false,"image_url":null,"decayed_at":null,"tle_current":{"epoch":"2026-05-24T18:06:13.550400Z","epoch_age_seconds":96543,"freshness":"FRESH","line1":"1 35755U 09044A   26144.75432350 -.00000331  00000+0  00000+0 0  9994","line2":"2 35755   0.0562  87.1332 0000739 238.6967 320.1004  1.00270539 61378","mean_motion":1.00270539,"eccentricity":7.39e-5,"inclination_deg":0.0562,"raan_deg":87.1332,"arg_perigee_deg":238.6967,"mean_anomaly_deg":320.1004,"bstar":0,"rev_number":6137,"period_min":1436.1147495178,"perigee_km":35783.828264333,"apogee_km":35790.060263344,"semimajor_km":42165.081263839,"source":"CELESTRAK","updated_at":"2026-05-25T13:38:13.865642Z"}}}